Regional Weather Roundup
Issued by NWS

Home | Current Version | Previous Version | Graphics & Text | Print | Product List | Glossary On
Versions: 1 2 3 4 5 6 7 8 9 10 11 12 13 14 15 16 17 18 19 20 21 22 23 24 25 26 27 28 29 30 31 32 33 34 35 36 37 38 39 40 41 42 43 44 45 46 47 48 49 50
912
ASUS43 KLOT 071008
RWRIL

ILLINOIS REGIONAL WEATHER ROUNDUP
NATIONAL WEATHER SERVICE CHICAGO/ROMEOVILLE IL
400 AM CST SUN FEB 07 2016

NOTE: "FAIR" INDICATES FEW OR NO CLOUDS BELOW 12,000 FEET WITH NO
SIGNIFICANT WEATHER AND/OR OBSTRUCTIONS TO VISIBILITY.

* THESE STATIONS ARE NOT UNDER NWS QUALITY CONTROL. THEY ALSO MAY NOT
  REPORT WEATHER SUCH AS PRECIPITATION OR FOG.

ILZ001-002-007-009-015-016-024-071100-
NORTHWEST ILLINOIS

CITY           SKY/WX    TMP DP  RH WIND       PRES   REMARKS
MOLINE         PTCLDY    39  28  64 SW17G25   29.88F WCI  30
STERLING*      CLOUDY    36  28  75 SW6       29.87F WCI  31
SAVANNA*       MOCLDY    37  30  78 S12       29.86F WCI  29
$$

ILZ003-004-008-010-011-017-018-071100-
NORTH CENTRAL ILLINOIS

CITY           SKY/WX    TMP DP  RH WIND       PRES   REMARKS
ROCKFORD       CLOUDY    36  30  79 S12       29.90F WCI  28
FREEPORT*      CLOUDY    35  30  82 S18       29.87F WCI  24
ROCHELLE*      CLOUDY    33  31  89 S13       29.90F WCI  24
DE KALB*       CLOUDY    33  30  90 S13       29.91F WCI  24
PERU*          PTCLDY   -13 -18  79 SW12      29.94F WCI -34
$$

ILZ005-006-012>014-019>023-071100-
NORTHEAST ILLINOIS

CITY           SKY/WX    TMP DP  RH WIND       PRES   REMARKS
CHICAGO-OHARE  CLOUDY    37  29  72 S14       29.92F WCI  28
CHICAGO-MIDWAY CLOUDY    38  28  67 S9        29.95F WCI  31
AURORA         CLOUDY    37  29  72 S12       29.92F WCI  29
LANSING*       CLOUDY    36  30  77 S13       29.98F WCI  28
JOLIET*        PTCLDY    38  31  77 S6        29.96F WCI  34
WAUKEGAN       CLOUDY    36  29  75 S10       29.89F WCI  28
DUPAGE AIRPORT PTCLDY    34  28  79 S8        29.92F WCI  27
KANKAKEE*      PTCLDY    34  30  86 S8        30.00F WCI  27
WHEELING       MOCLDY    36  29  75 S12       29.93F WCI  28
MORRIS*          N/A     35  30  82 S7        29.93F WCI  29
ROMEOVILLE*    CLOUDY    35  30  80 S10       29.95F WCI  28
$$

LMZ740>746-071100-
SOUTHERN LAKE MICHIGAN

STATION/POSITION SKY/WX   TEMP    WIND        PRES    VSBY  WAVE
                          AIR SEA DIR/SP/G                  HT/PER
                          (F)     (DEG/KT/KT) (MB)    (MI)  (FT/S)
HARRISON CRIB              39     200/ 17/ 21   N/A
BURNHAM HARBOR             39     180/  9/ 10   N/A
CALUMET HARBOR             37     180/  6/  8 1015.0F
BURNS HARBOR               38     190/ 13/ 17 1016.6F
MICHIGAN CITY              37     160/ 14/ 16   N/A
$$

ILZ025>027-034>036-040-047-049-050-058-095>099-071100-
WEST-CENTRAL ILLINOIS

CITY           SKY/WX    TMP DP  RH WIND       PRES   REMARKS
QUINCY         CLOUDY    38  28  67 SW15      29.99F WCI  29
GALESBURG*     CLOUDY    37  30  78 S15       29.93F WCI  27
MACOMB*        PTCLDY    38  30  73 SW13      29.98F WCI  30
JACKSONVILLE*  MOCLDY    41  31  68 S13       30.03F
PITTSFIELD*    CLOUDY    39  31  72 S9        30.02F WCI  32
$$

ILZ028>032-037-038-041>044-048-051>054-059>061-071100-
CENTRAL ILLINOIS

CITY           SKY/WX    TMP DP  RH WIND       PRES   REMARKS
PONTIAC        PTCLDY    37  32  82 S13       29.98F WCI  29
BLOOMINGTON    CLOUDY    36  31  82 SW16      30.00F WCI  26
DECATUR        CLOUDY    37  28  70 SW14      30.05F WCI  28
PEORIA         PTCLDY    36  28  73 SW12      29.97F WCI  28
LACON*         MOCLDY    38  28  68 SW10      29.95F WCI  31
LINCOLN*       CLOUDY    37  31  81 S6        30.02F WCI  32
SPRINGFIELD    CLOUDY    39  30  70 S13       30.03F WCI  31
TAYLORVILLE    CLOUDY    36  28  75 S14       30.06F WCI  27
$$

ILZ033-039-045-046-055>057-062-063-071100-
EAST-CENTRAL ILLINOIS

CITY           SKY/WX    TMP DP  RH WIND       PRES   REMARKS
CHAMPAIGN      CLOUDY    36  29  75 S13       30.05F WCI  27
RANTOUL*       PTCLDY    38  31  77 SW9       30.03F WCI  31
MATTOON        PTCLDY    38  23  55 SW9       30.09F WCI  31
PARIS*         PTCLDY    35  28  75 SW10      30.10F WCI  27
$$

ILZ079-100>102-071100-
SOUTHWEST ILLINOIS

CITY           SKY/WX    TMP DP  RH WIND       PRES   REMARKS
ALTON          CLOUDY    37  24  61 S10       30.08F WCI  29
BELLEVILLE     PTCLDY    35  23  61 S6        30.11F WCI  30
CAHOKIA*       CLOUDY    42  18  37 S8        30.11F
SPARTA*        PTCLDY    38  21  50 SW3       30.15F
$$

ILZ064>066-069>071-074>076-080>082-084>086-088>090-092>094-071100-
SOUTH-CENTRAL ILLINOIS

CITY           SKY/WX    TMP DP  RH WIND       PRES   REMARKS
CARBONDALE     CLOUDY    37  20  50 SW7       30.17F WCI  32
CAIRO*         CLEAR     35  26  69 SW5       30.20F WCI  31
EFFINGHAM*     PTCLDY    37  26  62 S7        30.13F WCI  32
MARION         CLEAR     39  23  52 SW6       30.17F WCI  35
MT. VERNON     CLOUDY    32  21  64 SW5       30.15F WCI  27
CENTRALIA*     MOCLDY    37  26  62 SW8       30.13F WCI  31
SALEM*         PTCLDY    40  23  51 SW8       30.13F
METROPOLIS*    CLEAR     25  24  94 CALM      30.20F
$$

ILZ067-068-072-073-078-083-087-091-071100-
SOUTHEAST ILLINOIS

CITY           SKY/WX    TMP DP  RH WIND       PRES   REMARKS
LAWRENCEVILLE  CLEAR     33  23  66 SW5       30.14F WCI  29
FLORA*         CLEAR     38  25  59 SW7       30.14F WCI  32
FAIRFIELD*     CLEAR     36  25  64 SW3       30.14F
HARRISBURG*    CLEAR     35  23  62 CALM      30.17F
ROBINSON*      CLEAR     35  24  64 SW10      30.14F WCI  28
CARMI*         CLEAR     37  24  60 SW9       30.15F WCI  30
$$

ABBREVIATIONS USED IN REMARKS
   TC - TEMPERATURE IN CELSIUS
  WCI - WIND CHILL INDEX
   HX - HEAT INDEX
  VSB - VISIBILITY
$$





USA.gov is the U.S. government's official web portal to all federal, state and local government web resources and services.